Wetbulb
54.46 54.15 54.03 53.91 53.78 53.74 53.97 54.74 55.21 55.65 56.26 56.88 57.36 57.60 57.72 57.76 57.00 54.70 54.37 57.54 55.04 48.09 49.76 54.31 55.88 51.78 51.50 49.37 46.05 48.79 47.66 47.28 46.61 41.91 41.15 40.96 40.09 42.69 40.47 42.47 40.98 38.62 36.01 34.79 34.37 32.34 33.00 48.30 47.10 40.55 43.99 47.63 48.84 48.24
53.89 53.52 53.52 53.27 53.27 53.02 52.80 53.37 54.44 54.56 55.23 56.18 57.10 57.02 57.26 57.20 57.14 55.65 53.00 57.95 58.77 51.92 50.69 58.14 58.18 59.14 56.80 54.34 49.74 50.23 48.97 47.39 47.63 43.46 42.29 41.70 40.64 40.08 37.47 35.30 42.12 37.35 38.91 37.14 37.72 38.04 44.82 46.86 48.35 49.16 49.01 47.41 47.76 46.29
53.47 52.50 52.04 51.96 51.79 51.82 52.15 52.71 53.35 53.80 54.42 55.19 55.81 56.60 56.64 56.60 56.32 55.05 52.18 54.82 55.90 52.16 51.93 53.08 52.82 55.54 56.27 55.97 54.95 49.21 49.41 51.02 48.51 48.40 44.24 42.00 40.40 40.32 36.69 37.94 39.02 42.83 42.45 39.09 39.45 43.42 44.42 48.37 50.16 50.30 50.22 48.35 47.99 46.82
52.36 51.96 51.88 51.61 51.39 51.35 51.21 51.37 51.86 52.59 53.35 54.11 54.93 56.03 55.99 55.79 55.51 55.33 52.10 55.50 54.73 52.27 47.40 49.46 56.62 53.10 56.92 56.04 56.08 54.08 52.14 50.86 49.59 47.35 43.65 40.53 39.86 42.06 38.56 40.64 39.20 42.29 44.16 41.67 41.27 43.48 45.50 47.97 49.83 50.58 50.03 49.16 48.43 46.58
51.96 51.76 51.31 51.14 51.37 51.25 51.50 51.54 51.44 51.67 52.54 53.40 54.44 55.29 55.23 55.37 54.53 53.20 52.70 56.04 54.71 52.15 47.27 48.56 53.37 54.39 54.08 55.08 55.31 54.15 50.62 48.39 46.52 43.48 41.20 40.61 42.03 43.18 40.89 39.91 40.38 44.25 43.49 40.75 39.81 45.26 44.59 45.09 50.03 51.65 49.36 47.98 46.92 45.26
51.34 51.90 51.33 50.89 51.21 51.40 52.04 51.67 51.33 51.35 52.05 53.05 53.59 54.30 54.55 54.69 53.95 53.90 52.28 55.37 54.20 53.60 50.32 46.13 51.15 51.28 52.34 52.87 52.69 51.35 49.43 48.14 46.85 44.70 43.11 43.91 46.67 42.99 38.81 37.42 44.47 47.22 48.71 47.27 45.93 48.88 48.19 50.31 52.76 52.28 49.62 47.63 47.03 45.21
51.36 51.42 50.91 50.59 50.87 51.25 52.00 51.44 51.35 51.20 51.72 52.27 53.00 53.52 53.93 53.97 52.00 52.73 51.75 55.05 53.18 52.76 50.79 47.76 46.02 50.90 52.64 52.35 50.54 50.11 49.83 47.99 47.80 44.78 44.12 43.28 44.75 44.96 40.64 38.42 45.85 47.94 49.81 50.85 49.89 49.28 47.41 52.09 50.27 52.04 51.05 49.74 49.14 46.24
51.10 51.27 50.83 50.44 50.62 51.11 51.86 51.86 51.52 51.46 51.81 52.28 52.39 52.91 53.75 53.53 52.64 52.78 55.03 53.48 52.43 51.24 52.15 45.79 47.70 47.61 52.11 47.71 46.73 49.18 47.35 47.36 46.48 45.33 44.33 42.98 45.56 43.88 39.64 44.59 46.82 47.92 49.17 50.67 50.36 50.45 48.43 49.88 52.77 51.93 51.24 48.61 45.95 44.90
50.94 50.83 50.30 49.90 50.46 50.94 51.80 52.26 51.81 52.04 51.82 51.91 52.58 53.75 51.70 51.44 51.21 53.58 57.28 56.02 52.43 52.59 48.17 48.03 44.40 41.89 50.17 48.92 51.81 48.97 45.48 42.88 46.40 43.88 43.46 45.03 41.67 41.18 43.49 45.58 46.05 48.27 47.41 47.73 48.87 49.89 52.02 51.61 51.41 51.20 50.05 47.98 46.06 45.18
50.75 50.65 49.97 49.61 49.59 50.19 51.21 52.42 52.47 51.57 51.78 53.05 52.29 51.55 49.41 54.14 57.60 56.36 52.96 50.79 50.61 51.13 50.49 48.63 48.71 44.60 47.60 46.42 47.12 45.61 45.66 43.31 40.93 44.51 48.98 43.06 41.61 48.04 48.45 47.34 47.83 48.76 49.05 49.64 46.33 44.18 46.89 49.25 50.88 50.36 49.87 49.96 49.08 48.84
50.50 50.01 49.57 49.30 48.97 50.03 51.08 52.23 51.84 52.31 52.58 53.15 51.91 52.33 55.90 56.03 52.81 51.07 47.41 47.04 46.75 44.82 47.80 48.46 49.43 48.53 50.05 46.92 47.59 48.31 43.04 43.30 39.47 42.96 43.48 41.11 42.41 47.88 50.27 51.03 51.47 51.97 51.01 50.36 49.83 49.78 48.71 48.94 49.48 49.55 50.07 51.80 52.01 51.56
50.01 49.73 49.41 49.06 48.98 49.57 50.62 51.89 51.56 52.43 52.99 52.14 51.76 51.86 53.65 51.21 48.16 45.84 44.23 46.15 44.72 43.36 47.33 47.11 47.86 50.30 50.48 51.55 46.85 45.51 43.24 43.32 38.99 45.98 43.05 39.24 45.68 48.73 49.74 50.05 50.83 49.35 50.32 51.30 51.96 50.71 50.46 50.65 49.86 49.19 49.57 49.27 48.74 50.04
50.08 50.01 49.39 49.03 48.85 49.43 50.56 51.60 51.51 52.04 51.77 53.63 50.49 48.12 48.13 46.84 39.51 42.80 40.62 42.27 43.25 46.89 48.70 48.17 47.25 48.29 50.02 51.51 45.98 44.35 42.51 41.34 46.37 42.52 41.09 43.52 47.53 50.33 49.28 50.54 51.55 49.98 51.88 51.95 52.05 50.26 50.22 49.66 50.19 48.94 48.06 48.64 48.04 48.35
50.58 50.45 50.25 49.60 49.21 49.69 50.63 51.60 51.70 52.40 52.36 50.73 48.94 38.17 43.88 43.03 44.77 44.41 43.59 44.66 49.77 50.32 48.78 48.99 50.07 49.61 46.98 45.44 45.30 42.82 44.86 45.22 41.90 39.12 41.16 46.61 49.22 49.91 50.87 51.27 50.53 49.34 50.65 50.94 50.01 49.70 49.99 49.89 49.26 49.72 49.11 49.34 49.01 48.24
50.16 50.22 50.10 49.61 49.54 49.74 50.61 51.48 51.76 53.01 51.47 48.99 49.30 41.10 44.52 48.14 48.77 50.82 51.07 49.74 52.08 53.61 49.50 50.40 50.77 48.79 48.14 44.34 44.64 43.78 42.46 40.99 42.23 41.01 45.64 49.60 50.18 50.04 50.12 50.56 50.15 50.42 48.94 48.61 48.54 49.10 49.73 49.36 48.58 48.46 49.48 48.30 47.92 48.92
49.94 49.09 47.07 49.09 49.72 49.86 50.66 51.35 52.04 52.52 51.40 49.61 47.11 45.67 48.87 48.18 48.86 49.02 48.41 47.27 52.01 52.65 50.40 50.76 48.74 46.98 45.97 43.96 43.62 43.14 41.74 40.87 42.77 47.10 49.74 50.84 49.83 50.43 49.93 50.84 50.49 51.13 49.56 48.73 48.92 49.07 48.85 48.45 47.89 47.97 49.12 48.68 48.83 49.14
48.37 46.79 51.93 49.78 50.39 49.95 50.97 51.61 51.47 49.41 48.65 48.46 45.83 49.32 48.90 48.46 50.05 51.69 50.96 50.78 52.38 52.69 46.61 47.10 44.94 43.55 46.08 43.41 42.67 44.50 42.66 44.50 49.05 50.54 51.79 51.42 51.32 51.03 50.70 49.95 50.72 50.40 49.58 48.97 48.59 48.42 48.78 49.86 48.74 48.12 47.47 48.80 49.69 49.29
47.45 51.72 51.44 51.33 50.64 50.79 50.56 50.11 50.08 48.88 46.55 46.55 44.60 46.54 49.75 51.93 51.31 51.25 51.63 52.17 50.27 50.13 48.61 48.60 51.77 44.97 43.54 43.47 43.17 46.65 48.32 51.58 53.25 53.50 53.33 52.84 52.75 51.65 52.64 49.75 50.70 50.16 49.72 49.49 48.95 49.49 50.20 49.61 48.89 49.47 49.98 50.35 50.15 50.83
48.97 50.93 51.99 51.61 50.98 50.88 48.76 48.87 50.04 46.51 46.11 46.77 47.71 49.65 49.58 49.68 51.80 52.62 52.84 53.70 54.01 55.53 52.94 49.53 47.69 45.26 45.90 48.04 50.40 53.55 54.62 53.23 54.89 55.92 56.63 55.04 53.25 52.38 51.11 50.81 51.34 50.00 50.34 49.81 49.42 49.76 50.21 50.72 50.08 50.41 50.68 51.00 50.82 51.10
49.47 51.02 51.95 52.22 52.10 48.79 48.05 48.79 50.16 47.53 44.65 47.54 48.73 48.41 48.81 50.22 51.42 52.49 53.48 53.09 52.55 52.44 50.39 46.84 46.91 48.11 49.91 51.92 52.96 52.88 54.95 56.26 54.13 52.71 53.90 54.52 54.07 52.90 51.42 50.32 50.12 50.04 50.76 51.36 51.26 49.77 51.69 51.98 52.64 52.58 51.61 50.91 49.97 51.13
50.37 51.33 52.04 51.29 49.54 49.23 48.29 49.44 47.47 47.58 47.46 45.14 47.55 50.84 49.71 50.95 50.06 49.43 49.44 51.63 52.83 50.88 48.26 50.06 50.18 51.06 52.07 54.54 54.43 54.35 54.07 55.83 54.69 53.59 52.80 53.74 54.05 53.90 51.82 51.58 50.87 50.81 52.09 51.71 50.72 51.32 49.69 51.06 52.59 52.56 48.64 47.70 49.09 50.93
50.28 52.10 49.47 50.06 47.06 48.83 47.91 50.45 49.06 52.43 48.46 48.60 50.17 49.87 47.70 46.92 48.36 50.04 52.09 49.24 48.72 49.93 51.39 52.02 51.52 52.74 54.22 53.80 54.66 54.28 54.30 54.27 55.91 54.95 51.42 53.34 53.83 52.64 51.59 52.52 51.59 51.94 51.15 51.83 51.86 52.67 53.43 52.75 51.79 48.42 47.57 48.46 48.84 50.15
51.15 51.15 48.69 47.97 45.38 44.23 41.95 48.96 48.31 49.33 45.92 48.32 51.06 48.88 48.92 49.24 50.39 53.17 48.73 50.10 50.51 52.29 54.02 54.37 54.47 54.75 56.29 56.37 56.09 54.58 55.21 54.82 54.32 54.55 54.01 52.59 54.87 56.64 55.29 53.13 52.17 52.34 51.48 52.86 53.93 52.55 51.58 49.07 48.21 47.38 47.96 48.36 48.06 48.44
51.46 48.81 45.49 44.91 44.71 41.47 46.28 47.01 48.78 47.57 47.90 48.10 48.26 47.32 48.20 49.60 52.51 49.51 47.60 49.29 51.67 52.94 52.85 53.94 56.11 55.60 54.40 55.19 54.49 54.99 55.10 53.33 52.96 54.71 55.41 57.53 56.54 55.97 57.05 56.19 55.53 54.59 54.22 55.07 54.68 53.33 51.49 49.32 47.04 47.44 47.15 47.25 48.75 47.48
41.96 42.60 42.87 36.90 46.06 43.69 43.41 44.57 45.09 45.68 45.06 46.42 46.81 46.81 48.33 52.59 49.04 47.44 47.39 49.09 51.27 53.05 54.98 54.42 55.18 54.03 53.47 56.14 56.12 56.25 56.88 55.31 54.08 54.17 57.21 58.03 56.82 55.90 55.13 54.76 54.69 55.29 56.21 53.31 53.95 53.37 52.44 50.30 47.92 48.05 48.97 48.73 47.77 47.91
37.09 43.73 39.41 43.55 44.02 42.57 42.33 42.07 43.66 44.01 45.29 46.29 48.29 50.27 50.56 49.65 47.38 46.03 49.79 53.59 51.95 55.09 54.32 54.88 55.29 53.64 52.91 53.62 54.23 55.27 57.92 60.93 58.71 56.42 56.54 57.39 57.12 55.73 54.38 53.18 52.98 53.30 55.64 55.01 53.20 53.12 52.62 50.61 49.16 49.42 48.99 48.83 45.31 48.55
38.47 43.31 44.38 46.47 45.94 46.25 44.16 45.92 47.39 48.54 47.47 47.16 48.35 48.91 49.97 46.65 46.26 49.62 54.64 56.01 54.55 55.64 56.48 57.02 56.52 54.60 54.62 56.53 54.68 57.08 59.19 60.80 59.55 59.12 58.27 58.29 57.32 56.76 55.55 54.68 52.45 54.70 55.01 56.38 53.27 52.72 52.01 50.76 49.29 49.47 48.81 48.45 49.31 48.71
44.48 46.24 43.98 46.96 44.79 46.92 44.49 45.96 47.39 47.90 48.53 50.16 50.44 48.40 48.45 49.27 48.00 52.67 54.35 55.49 55.98 57.12 57.03 57.98 57.42 57.62 56.05 56.42 57.59 58.24 56.96 58.25 57.81 57.93 57.98 57.64 56.74 56.91 55.79 56.66 56.14 51.13 53.66 54.13 53.69 53.26 52.06 51.27 50.37 50.19 50.16 49.50 49.37 50.04
43.76 46.77 49.14 46.08 46.19 47.09 46.91 47.39 48.22 50.72 53.13 52.63 50.00 48.79 49.01 52.01 54.35 55.19 57.18 58.06 57.27 56.50 55.83 54.81 54.84 58.02 57.52 58.38 57.96 57.68 56.78 56.98 55.81 53.89 53.94 53.44 55.86 58.16 58.77 56.46 55.92 52.98 52.94 52.79 46.68 50.51 53.51 52.42 51.07 50.52 50.19 48.95 48.67 48.15
44.14 48.45 47.34 48.16 46.54 45.66 49.05 51.08 50.29 53.03 54.17 53.87 53.97 53.41 51.87 52.24 53.98 55.81 55.68 56.15 55.52 55.63 56.06 55.26 55.52 55.64 55.40 55.62 54.89 55.42 56.40 56.84 57.01 55.40 53.82 54.20 55.10 55.33 53.29 53.68 53.15 53.36 54.71 53.33 52.55 50.74 44.24 48.37 46.95 47.84 47.58 47.25 46.20 46.11
48.41 49.05 47.84 48.21 47.03 47.80 49.33 50.29 51.67 52.93 53.52 53.37 53.80 51.15 50.99 52.04 54.44 55.55 55.79 55.75 54.88 54.08 55.03 55.17 55.00 55.31 54.89 54.97 54.47 52.83 53.51 56.12 57.74 58.59 58.27 56.72 54.00 54.25 55.59 56.76 55.97 54.66 54.78 54.97 52.76 49.90 48.23 49.59 49.30 49.24 48.82 48.59 48.66 47.21
47.96 46.65 45.14 43.55 45.38 49.68 51.16 50.89 50.52 49.85 50.73 50.55 51.25 50.77 50.55 50.31 49.55 52.76 55.53 56.41 55.42 54.73 54.71 55.54 56.57 57.99 58.76 56.40 58.45 58.14 52.28 55.95 57.71 58.55 57.98 56.00 55.83 55.90 56.24 55.79 55.36 54.75 54.27 53.60 55.91 53.16 51.01 50.65 50.13 50.42 49.76 49.93 50.35 50.63
48.83 48.10 48.05 47.44 47.81 48.50 50.74 50.90 50.50 49.08 49.15 48.97 49.79 50.73 50.77 50.25 49.07 53.13 57.38 58.50 58.23 57.28 56.43 56.10 55.58 56.93 57.41 57.61 56.85 56.90 53.47 56.51 53.69 47.95 47.75 48.60 48.54 50.40 53.23 53.12 53.23 53.70 53.03 52.65 52.65 52.70 53.26 51.42 51.01 50.34 50.05 50.36 50.69 50.25
MSLP
1021.40 1021.41 1021.33 1021.40 1021.32 1021.09 1021.01 1021.01 1020.77 1020.50 1020.27 1019.98 1019.52 1019.32 1019.07 1018.55 1018.28 1018.16 1016.83 1015.88 1016.12 1016.32 1015.13 1014.07 1013.25 1013.07 1012.55 1012.35 1011.98 1011.60 1011.76 1012.16 1012.80 1014.19 1015.00 1015.29 1015.07 1014.87 1014.98 1015.01 1015.31 1016.40 1017.57 1018.31 1018.81 1018.70 1018.07 1016.95 1016.88 1017.69 1019.11 1019.96 1020.64 1021.42
1021.03 1021.01 1020.99 1021.15 1021.12 1021.01 1020.83 1020.83 1020.61 1020.46 1020.28 1020.04 1019.57 1019.31 1019.00 1018.56 1018.20 1017.84 1017.34 1015.62 1015.57 1016.05 1014.64 1013.37 1012.39 1012.06 1012.09 1011.82 1011.99 1012.09 1012.72 1013.26 1013.99 1014.86 1015.51 1015.64 1015.84 1015.65 1015.92 1015.91 1015.40 1016.36 1016.66 1017.30 1018.35 1018.30 1017.86 1017.70 1017.73 1018.25 1018.94 1020.02 1021.10 1021.56
1020.79 1020.80 1020.67 1020.76 1021.01 1020.88 1020.67 1020.67 1020.46 1020.28 1020.24 1020.01 1019.63 1019.33 1018.92 1018.61 1018.35 1018.16 1017.80 1016.85 1015.93 1015.84 1014.68 1013.51 1011.91 1011.19 1011.16 1011.34 1011.33 1011.97 1012.70 1012.89 1013.64 1014.09 1015.32 1016.07 1016.25 1016.21 1016.55 1016.42 1016.07 1016.14 1016.11 1017.08 1017.94 1018.38 1018.31 1018.34 1018.54 1018.60 1018.85 1019.72 1020.77 1021.50
1020.43 1020.51 1020.55 1020.56 1020.68 1020.65 1020.41 1020.52 1020.39 1020.20 1020.13 1019.95 1019.58 1019.23 1018.90 1018.55 1018.31 1018.21 1018.16 1017.10 1016.90 1016.58 1016.08 1014.12 1012.43 1012.01 1011.09 1011.06 1011.24 1011.45 1011.99 1012.69 1013.54 1014.27 1015.49 1016.20 1016.47 1016.01 1016.52 1016.37 1016.50 1016.25 1016.34 1017.26 1018.35 1018.45 1018.65 1018.51 1018.63 1018.93 1019.76 1020.26 1021.11 1021.93
1020.02 1020.16 1020.33 1020.45 1020.40 1020.50 1020.22 1020.25 1020.19 1020.11 1019.99 1019.85 1019.48 1019.15 1018.79 1018.40 1018.15 1017.76 1017.75 1017.17 1016.74 1016.94 1016.61 1014.91 1013.14 1011.73 1011.35 1011.32 1011.50 1011.88 1012.45 1013.36 1014.49 1015.21 1016.05 1016.26 1015.86 1016.23 1016.48 1016.54 1016.73 1016.05 1016.40 1016.94 1017.19 1017.31 1017.79 1018.05 1018.43 1018.87 1019.50 1020.17 1020.99 1021.71
1019.52 1019.88 1020.05 1020.07 1020.24 1020.30 1020.02 1019.99 1019.97 1019.93 1019.79 1019.60 1019.28 1019.02 1018.68 1018.35 1017.95 1017.47 1017.61 1017.12 1016.82 1016.75 1016.84 1015.94 1013.69 1012.46 1011.95 1011.74 1012.06 1012.47 1012.90 1013.69 1014.47 1015.51 1015.92 1015.64 1015.09 1015.52 1016.93 1017.18 1016.80 1015.89 1015.65 1015.67 1016.14 1016.23 1016.95 1017.21 1017.69 1018.51 1019.26 1019.83 1020.28 1021.00
1019.26 1019.44 1019.75 1019.97 1020.13 1019.99 1019.85 1019.77 1019.74 1019.73 1019.59 1019.38 1019.09 1018.80 1018.57 1018.42 1018.18 1017.79 1017.53 1016.99 1016.85 1017.18 1017.04 1016.27 1014.80 1013.07 1012.31 1012.40 1012.82 1013.16 1013.27 1013.97 1014.65 1015.33 1015.66 1015.81 1015.45 1015.49 1016.49 1017.04 1016.55 1016.05 1015.50 1015.00 1015.44 1016.33 1016.89 1017.25 1017.65 1018.18 1018.72 1019.36 1020.10 1020.69
1018.89 1019.17 1019.51 1019.68 1019.83 1019.72 1019.71 1019.60 1019.49 1019.45 1019.30 1019.12 1018.84 1018.51 1018.31 1018.22 1018.04 1017.21 1016.43 1016.41 1016.88 1017.11 1017.00 1016.68 1015.19 1013.85 1012.79 1013.53 1013.90 1013.71 1014.31 1014.57 1014.81 1015.11 1015.37 1015.63 1015.60 1015.88 1016.54 1016.03 1015.69 1015.50 1015.28 1015.03 1015.05 1015.16 1015.67 1016.03 1017.09 1018.04 1018.68 1019.36 1019.96 1020.35
1018.64 1019.00 1019.26 1019.46 1019.62 1019.56 1019.57 1019.42 1019.24 1019.16 1019.02 1018.82 1018.50 1018.28 1018.28 1018.07 1017.48 1016.69 1016.27 1016.43 1016.68 1017.41 1017.05 1016.40 1015.53 1014.45 1013.33 1013.75 1013.85 1014.26 1014.59 1015.32 1015.20 1015.22 1015.27 1015.63 1015.94 1016.12 1015.47 1015.51 1015.47 1015.00 1014.66 1014.77 1014.91 1015.08 1015.70 1016.04 1016.68 1017.51 1018.14 1018.85 1019.32 1019.50
1018.41 1018.77 1018.99 1019.34 1019.44 1019.47 1019.44 1019.28 1019.12 1018.96 1018.76 1018.56 1018.41 1018.29 1017.90 1016.86 1016.17 1016.25 1016.41 1016.66 1016.84 1016.78 1016.68 1016.21 1014.85 1014.41 1013.92 1014.17 1014.39 1014.88 1015.21 1015.80 1015.84 1015.01 1014.58 1015.03 1015.63 1015.31 1014.95 1014.86 1014.70 1014.49 1014.34 1014.45 1014.53 1014.86 1015.33 1016.15 1016.59 1017.28 1017.95 1018.05 1018.37 1018.40
1018.07 1018.61 1018.94 1019.20 1019.19 1019.34 1019.31 1019.23 1018.98 1018.80 1018.54 1018.56 1018.39 1018.07 1016.96 1016.28 1016.43 1016.59 1016.77 1016.88 1016.59 1016.49 1015.78 1014.97 1014.41 1014.13 1013.60 1014.05 1014.42 1014.69 1015.63 1015.86 1016.09 1015.27 1014.90 1015.40 1015.79 1015.16 1014.73 1014.53 1014.17 1013.94 1013.94 1014.06 1013.79 1014.12 1014.42 1015.01 1016.01 1016.66 1016.97 1017.01 1017.31 1017.49
1017.86 1018.31 1018.81 1019.03 1019.00 1019.18 1019.24 1019.18 1018.96 1018.92 1018.82 1019.01 1018.88 1018.21 1017.38 1016.96 1016.97 1017.03 1016.71 1016.21 1015.97 1015.54 1014.53 1013.95 1013.69 1013.56 1013.36 1013.32 1014.32 1014.92 1015.35 1015.75 1015.60 1014.79 1015.15 1015.40 1014.93 1014.59 1014.47 1014.28 1013.85 1013.61 1013.23 1013.49 1013.56 1014.03 1014.39 1014.81 1015.25 1015.68 1015.85 1016.01 1016.13 1016.16
1017.70 1018.15 1018.68 1018.77 1018.82 1019.05 1019.16 1019.13 1018.97 1018.95 1018.73 1018.61 1018.77 1018.31 1017.77 1017.60 1017.27 1016.85 1016.16 1015.51 1015.10 1014.17 1013.50 1013.23 1013.33 1013.27 1013.24 1013.56 1014.53 1015.06 1015.34 1015.41 1014.62 1014.87 1014.90 1014.77 1014.45 1014.45 1014.29 1013.97 1013.56 1012.98 1013.16 1013.23 1013.55 1013.82 1014.20 1014.59 1014.92 1015.09 1015.37 1015.41 1015.53 1015.65
1017.53 1018.10 1018.42 1018.54 1018.69 1018.93 1019.07 1019.05 1018.93 1018.91 1018.92 1018.63 1018.35 1018.32 1017.80 1016.88 1016.04 1015.06 1014.45 1013.90 1013.28 1012.94 1012.82 1012.81 1013.12 1013.14 1013.55 1014.12 1014.55 1015.12 1014.71 1014.46 1014.68 1014.67 1014.69 1014.57 1014.27 1014.11 1013.93 1013.69 1013.38 1013.21 1013.10 1013.50 1013.77 1013.98 1014.16 1014.48 1014.75 1014.82 1014.87 1014.82 1015.04 1015.25
1017.58 1017.93 1018.18 1018.42 1018.55 1018.81 1018.96 1019.01 1018.95 1018.95 1018.81 1018.44 1017.96 1017.36 1016.43 1015.18 1014.35 1013.63 1013.11 1012.95 1012.51 1012.18 1012.49 1012.78 1013.05 1013.36 1013.85 1014.31 1014.38 1014.64 1014.54 1014.39 1014.29 1014.25 1014.19 1013.91 1013.94 1013.93 1013.84 1013.69 1013.66 1013.58 1013.77 1013.84 1014.02 1014.22 1014.37 1014.53 1014.74 1014.80 1014.64 1014.65 1014.70 1014.83
1017.57 1017.73 1017.97 1018.00 1018.23 1018.70 1018.90 1019.04 1018.92 1018.92 1018.58 1018.24 1017.61 1016.58 1015.21 1014.77 1013.97 1013.36 1012.91 1012.86 1012.27 1012.41 1012.73 1012.68 1013.44 1013.95 1014.16 1014.16 1014.32 1014.29 1014.16 1013.91 1013.55 1013.40 1013.12 1013.41 1013.67 1013.65 1013.72 1013.81 1013.77 1013.56 1013.68 1013.99 1014.12 1014.27 1014.38 1014.44 1014.51 1014.56 1014.48 1014.56 1014.50 1014.55
1017.43 1017.49 1017.13 1017.72 1018.18 1018.66 1018.86 1018.93 1018.78 1018.74 1018.37 1017.66 1016.63 1015.53 1015.20 1014.69 1013.88 1013.09 1012.79 1012.51 1012.29 1013.10 1013.78 1013.54 1013.93 1013.92 1013.81 1014.00 1013.89 1013.29 1013.29 1013.15 1012.85 1012.96 1013.08 1013.15 1013.50 1013.72 1013.72 1013.77 1013.82 1013.87 1013.97 1014.12 1014.23 1014.26 1014.22 1014.20 1014.19 1014.38 1014.51 1014.35 1014.20 1014.05
1017.52 1017.18 1017.48 1017.87 1018.28 1018.66 1018.96 1018.85 1018.56 1018.27 1017.74 1016.73 1016.24 1015.13 1014.43 1013.72 1013.49 1012.94 1012.35 1012.29 1012.64 1013.04 1013.45 1013.59 1013.60 1013.82 1013.97 1013.73 1013.52 1013.28 1013.00 1012.50 1012.65 1013.13 1013.35 1013.30 1013.37 1013.72 1013.82 1013.90 1013.81 1013.84 1013.94 1014.00 1014.02 1014.07 1014.06 1014.22 1014.26 1014.17 1014.04 1013.95 1013.98 1013.78
1017.60 1017.52 1017.67 1017.93 1018.12 1018.21 1018.39 1018.50 1018.31 1017.61 1016.76 1016.06 1015.01 1014.27 1013.88 1013.44 1012.83 1012.16 1012.06 1012.18 1012.44 1012.50 1012.97 1013.41 1013.69 1013.60 1013.42 1012.94 1013.25 1013.43 1013.34 1013.57 1013.22 1013.87 1014.10 1013.84 1013.50 1013.80 1014.03 1013.83 1013.83 1014.01 1013.91 1013.89 1013.89 1013.90 1013.87 1013.78 1013.73 1013.66 1013.53 1013.47 1013.54 1013.20
1017.60 1017.63 1017.83 1018.11 1018.08 1018.11 1017.81 1017.48 1017.33 1016.97 1016.06 1014.86 1014.15 1013.60 1013.38 1012.87 1012.31 1012.00 1011.97 1012.22 1012.55 1013.16 1013.40 1013.43 1013.05 1012.45 1012.19 1012.15 1012.47 1013.11 1013.00 1012.96 1013.81 1013.72 1013.70 1013.65 1013.34 1013.65 1013.87 1013.76 1013.81 1013.85 1013.79 1013.71 1013.63 1013.60 1013.61 1013.60 1013.29 1013.00 1012.68 1012.69 1012.91 1012.60
1017.59 1017.79 1018.13 1018.20 1018.34 1018.15 1017.62 1016.68 1016.49 1015.71 1014.75 1014.03 1013.05 1012.87 1012.60 1012.09 1012.05 1012.02 1011.98 1011.97 1012.40 1012.51 1012.53 1012.07 1011.84 1011.34 1011.02 1011.24 1011.61 1012.30 1012.51 1012.58 1013.23 1013.73 1013.47 1013.49 1013.14 1013.27 1013.44 1013.21 1013.39 1013.50 1013.44 1013.26 1013.44 1013.21 1013.11 1013.03 1012.78 1012.35 1012.39 1012.14 1011.83 1011.62
1017.52 1017.72 1018.13 1018.48 1018.25 1017.58 1016.98 1015.82 1015.31 1014.21 1013.98 1013.16 1012.56 1012.13 1012.12 1011.98 1011.75 1011.38 1011.10 1011.55 1011.50 1011.07 1010.73 1010.70 1010.49 1010.53 1010.78 1011.01 1011.30 1011.78 1012.18 1012.54 1012.70 1012.66 1012.85 1013.05 1013.16 1012.91 1012.60 1012.61 1012.97 1012.94 1012.70 1012.47 1012.47 1012.47 1012.26 1011.96 1011.81 1011.85 1011.84 1011.66 1011.36 1011.34
1017.44 1017.46 1017.65 1017.87 1017.80 1017.13 1016.07 1014.79 1014.48 1013.70 1013.32 1012.43 1011.86 1011.75 1011.48 1011.14 1010.50 1010.19 1010.66 1010.26 1009.83 1009.29 1009.04 1009.12 1009.07 1009.24 1009.63 1009.74 1010.27 1010.65 1011.03 1011.51 1011.92 1011.65 1011.29 1011.42 1012.15 1012.04 1012.06 1011.99 1012.07 1012.01 1011.95 1011.58 1011.32 1011.31 1011.32 1011.00 1011.14 1011.40 1011.20 1011.10 1011.25 1011.34
1017.28 1017.33 1017.33 1017.27 1017.06 1016.28 1015.24 1014.25 1013.66 1013.11 1012.42 1011.99 1011.64 1011.18 1010.65 1010.20 1009.69 1009.96 1009.90 1009.26 1008.43 1008.03 1008.14 1008.05 1008.05 1008.68 1009.12 1009.46 1009.80 1009.85 1010.00 1010.45 1010.81 1010.83 1011.02 1011.59 1011.59 1011.48 1011.14 1011.04 1010.78 1010.74 1010.60 1010.45 1010.54 1010.54 1010.65 1010.80 1010.77 1010.85 1010.81 1010.83 1010.85 1010.98
1017.52 1017.35 1017.12 1016.59 1016.04 1015.62 1014.55 1013.38 1012.92 1012.54 1011.93 1011.50 1011.12 1010.66 1010.07 1009.65 1009.97 1009.54 1008.94 1008.18 1007.52 1007.25 1006.96 1007.01 1007.42 1007.84 1008.44 1008.73 1008.73 1008.87 1009.25 1009.84 1010.53 1010.50 1010.36 1010.74 1010.53 1010.45 1010.79 1010.67 1010.06 1009.64 1009.55 1009.83 1009.81 1009.96 1010.09 1010.23 1010.39 1010.45 1010.39 1010.29 1010.44 1010.47
1016.80 1016.29 1016.25 1015.23 1014.66 1014.24 1013.33 1012.60 1012.04 1011.67 1011.34 1010.99 1010.47 1010.05 1009.61 1009.37 1009.23 1008.63 1007.77 1007.05 1007.02 1006.63 1006.45 1006.59 1007.10 1007.62 1007.97 1008.09 1008.40 1008.47 1008.21 1008.42 1009.38 1009.91 1008.94 1008.89 1009.03 1009.22 1009.45 1009.64 1009.39 1008.71 1008.15 1008.43 1008.82 1009.24 1009.45 1009.62 1009.77 1009.84 1009.79 1009.56 1009.67 1009.91
1015.95 1015.06 1014.59 1013.89 1013.26 1012.69 1012.30 1011.70 1011.27 1011.07 1010.64 1010.21 1009.85 1009.36 1009.10 1008.53 1008.01 1007.47 1007.02 1006.66 1006.63 1006.31 1006.05 1005.89 1006.15 1006.76 1007.18 1007.43 1007.58 1007.57 1007.19 1007.34 1007.71 1007.57 1007.46 1007.50 1007.55 1007.90 1008.31 1008.48 1008.43 1007.58 1007.24 1007.69 1007.99 1008.17 1008.65 1008.97 1009.10 1009.10 1009.19 1009.06 1009.03 1009.13
1015.05 1013.96 1013.41 1012.69 1012.50 1011.83 1011.77 1011.44 1010.92 1010.42 1010.13 1009.75 1009.28 1008.48 1007.96 1007.20 1007.15 1006.64 1006.41 1006.37 1006.21 1006.00 1005.95 1005.56 1005.47 1005.69 1006.27 1006.51 1006.55 1006.44 1006.62 1006.79 1007.01 1007.08 1007.04 1006.98 1006.97 1007.14 1007.38 1007.26 1007.12 1007.06 1006.90 1006.91 1007.26 1007.73 1007.97 1008.15 1008.27 1008.35 1008.46 1008.59 1008.49 1008.51
1014.31 1013.19 1012.65 1012.00 1011.67 1011.37 1011.13 1010.84 1010.16 1009.62 1009.74 1009.83 1009.64 1008.68 1007.27 1006.50 1006.04 1006.04 1005.81 1005.45 1005.38 1005.51 1005.66 1005.66 1005.30 1005.34 1005.66 1005.98 1006.05 1005.82 1005.71 1006.12 1006.88 1007.25 1007.23 1007.10 1007.00 1006.53 1005.96 1006.41 1006.61 1006.76 1006.87 1006.82 1006.84 1006.90 1007.01 1007.35 1007.66 1007.80 1008.07 1008.27 1008.33 1008.37
1012.83 1012.08 1011.90 1011.22 1010.78 1010.44 1009.78 1009.47 1009.02 1008.63 1008.85 1008.98 1008.75 1007.75 1006.83 1006.03 1005.25 1005.24 1005.48 1005.36 1005.30 1005.27 1005.09 1005.23 1005.18 1005.31 1005.48 1005.52 1005.60 1005.48 1005.30 1005.66 1005.99 1006.48 1006.70 1006.79 1006.70 1006.24 1005.83 1005.95 1006.23 1006.30 1006.46 1006.74 1006.96 1007.05 1007.27 1007.33 1007.53 1007.63 1007.72 1007.83 1007.91 1007.84
1011.26 1011.10 1011.13 1010.98 1010.64 1009.66 1009.04 1008.65 1008.23 1007.87 1007.78 1007.44 1007.11 1007.13 1006.55 1005.92 1005.17 1004.50 1004.53 1004.47 1004.66 1004.76 1004.89 1004.77 1004.89 1004.96 1005.10 1005.24 1005.23 1005.36 1005.60 1005.64 1005.51 1005.20 1005.45 1005.55 1005.86 1005.68 1005.64 1005.85 1005.91 1005.99 1006.09 1006.33 1006.34 1006.57 1006.93 1007.06 1007.02 1007.13 1007.34 1007.47 1007.39 1007.42
1010.65 1010.86 1010.93 1010.77 1010.07 1009.13 1008.71 1008.14 1007.66 1007.26 1006.81 1006.62 1006.32 1005.93 1005.82 1005.72 1005.52 1004.79 1003.68 1003.74 1004.06 1004.37 1004.40 1004.53 1004.57 1004.37 1003.89 1004.07 1004.38 1004.35 1004.17 1004.63 1004.88 1004.57 1004.84 1005.38 1005.52 1005.29 1005.24 1005.37 1005.47 1005.45 1005.68 1005.95 1005.96 1006.07 1006.25 1006.25 1006.51 1006.66 1006.67 1006.73 1006.84 1006.78
1010.31 1010.51 1010.61 1010.44 1009.65 1008.71 1007.79 1007.43 1006.71 1006.27 1005.85 1005.76 1005.49 1005.23 1005.19 1005.20 1004.96 1003.90 1002.66 1002.42 1002.82 1003.27 1003.67 1003.60 1003.41 1003.53 1003.18 1003.27 1003.38 1003.43 1003.49 1003.60 1003.72 1004.08 1004.41 1004.84 1005.17 1005.32 1005.51 1005.72 1005.80 1005.80 1005.78 1005.68 1005.40 1005.21 1005.05 1005.27 1005.61 1005.89 1006.17 1006.44 1006.45 1006.17
Wind_Speed
6 3 3 4 4 5 7 8 8 9 10 11 10 11 11 11 11 5 6 3 2 2 6 4 1 2 5 3 3 4 6 7 5 5 3 2 3 3 3 2 7 7 6 4 2 3 5 2 3 2 6 4 7 5
6 4 3 5 5 5 7 9 8 8 9 11 11 11 11 10 11 9 3 4 2 3 6 6 6 10 7 4 2 4 5 3 4 5 2 2 3 3 3 1 3 2 7 6 6 6 3 4 6 4 7 6 5 5
6 5 3 3 4 5 6 8 8 8 8 10 11 11 11 11 10 7 3 4 4 3 5 4 4 3 1 1 4 5 3 3 3 5 4 2 4 4 2 2 3 6 3 4 4 3 3 4 3 5 7 8 6 6
7 6 5 4 4 5 5 7 8 8 8 10 12 11 11 11 10 6 2 3 1 1 1 8 4 4 3 5 2 4 6 6 5 4 3 3 1 2 3 4 5 5 4 3 2 3 1 4 4 7 8 9 9 7
9 6 5 5 5 5 4 6 7 8 8 10 10 11 11 11 10 3 3 3 2 4 2 5 8 5 1 2 6 6 6 5 3 3 4 2 1 4 2 3 2 3 6 4 6 8 6 5 10 11 12 11 11 8
9 8 6 3 3 5 6 6 7 8 9 9 10 10 11 12 11 2 3 2 4 3 2 4 5 3 1 2 4 4 2 3 3 4 3 3 3 5 4 2 6 3 2 6 6 8 6 4 12 8 8 10 9 8
11 9 6 3 3 4 6 6 7 8 9 10 10 10 11 10 3 2 5 4 5 2 2 4 5 5 3 3 3 2 3 1 4 1 0 2 3 5 4 3 5 4 5 5 4 7 5 7 8 9 7 10 8 5
11 9 8 4 3 5 6 7 7 8 9 9 10 11 11 11 8 4 2 4 3 2 2 1 4 3 1 1 1 1 1 3 3 3 2 2 3 3 1 6 5 5 4 6 7 7 4 5 11 9 6 8 8 8
11 9 7 3 2 5 7 8 7 7 9 10 11 10 4 1 1 3 0 3 1 3 1 1 4 4 2 2 2 2 3 2 2 2 3 5 1 4 8 6 6 6 5 3 3 6 9 9 12 12 10 10 8 9
11 9 7 6 3 4 7 9 7 9 10 9 2 2 2 3 3 3 4 3 3 1 1 3 1 2 5 1 1 3 2 1 1 6 1 3 3 3 4 5 4 4 6 5 6 3 5 5 10 10 11 12 11 11
11 8 6 5 2 4 6 7 8 8 4 2 1 2 3 3 3 2 1 2 2 2 3 5 5 2 2 3 2 2 3 0 1 7 5 1 2 4 4 4 4 6 7 8 5 5 6 7 9 8 8 11 13 11
11 9 8 6 2 3 6 7 6 2 2 2 2 4 3 2 2 1 3 3 2 5 3 4 4 5 3 4 4 2 2 2 5 2 3 3 5 6 5 6 3 4 4 8 8 8 9 9 9 8 7 7 7 9
12 9 9 7 3 3 5 5 4 4 6 1 1 1 3 2 2 4 5 3 2 3 3 1 1 4 3 4 3 3 1 5 1 0 4 5 3 4 7 4 5 2 7 5 6 7 7 7 8 7 6 4 6 7
10 9 8 6 4 3 4 4 2 2 1 1 3 3 4 4 5 6 5 5 6 3 2 3 2 3 2 3 3 4 6 2 2 2 5 3 6 6 5 3 3 2 4 8 8 7 6 7 7 6 6 4 4 4
10 8 5 5 6 5 3 3 1 0 1 2 2 4 6 6 4 4 4 1 2 1 3 3 3 4 3 3 1 2 2 3 5 5 4 4 5 6 4 2 4 5 5 7 6 6 6 5 5 2 3 4 3 4
10 7 4 7 10 8 5 3 1 1 1 2 4 3 4 2 4 2 1 2 2 2 3 3 3 3 4 4 3 6 3 5 5 4 4 5 6 5 4 4 4 5 7 7 6 4 4 4 4 4 3 4 4 5
7 1 3 10 11 9 7 2 2 2 3 3 4 4 4 4 5 4 2 3 1 5 2 3 5 6 0 1 4 4 6 5 4 2 3 6 6 5 5 5 5 6 6 6 5 5 4 4 3 2 4 5 6 8
1 2 12 13 9 6 1 2 2 2 4 4 3 3 3 3 3 4 3 1 4 3 2 3 3 1 3 3 2 3 3 1 4 3 1 2 4 4 5 6 5 5 5 4 5 5 4 3 4 5 6 7 6 7
4 2 11 13 2 3 3 3 2 3 6 3 5 4 4 4 5 5 1 2 2 2 5 3 2 4 4 3 3 6 5 3 7 2 3 3 3 3 5 4 4 4 4 4 4 4 5 7 6 5 5 4 4 5
5 2 11 4 3 1 3 3 3 3 4 5 3 4 3 4 3 2 1 3 4 4 1 3 5 4 4 3 4 5 5 8 5 4 4 4 3 4 6 5 4 4 3 5 5 5 4 4 4 6 5 5 4 7
2 5 7 2 1 2 3 2 4 5 4 4 3 3 4 1 2 3 3 3 2 4 4 5 5 5 6 4 5 5 7 8 7 6 6 4 4 5 5 5 5 4 4 4 5 7 6 6 5 5 3 4 4 5
2 8 3 1 2 3 4 4 4 3 2 4 3 3 2 2 3 4 3 3 4 5 6 6 5 4 3 4 6 6 8 9 7 4 7 7 4 5 4 6 3 6 6 6 5 7 8 5 5 4 3 4 3 4
5 2 2 3 2 2 7 2 3 3 3 3 1 1 3 3 5 3 3 5 5 6 7 8 9 7 8 6 5 5 8 9 5 5 5 3 4 6 6 6 5 7 6 8 5 5 5 6 6 5 4 2 1 2
1 3 3 3 4 4 3 3 3 3 3 2 2 3 3 3 1 2 4 4 5 3 5 9 7 4 1 4 5 6 6 6 5 3 5 5 5 7 10 10 9 8 8 7 5 4 4 5 6 4 4 3 2 3
3 3 3 4 3 3 4 3 3 2 4 4 3 3 3 2 2 3 3 5 3 4 6 5 5 5 5 6 5 5 6 6 6 8 7 10 8 5 5 5 8 10 7 7 5 4 5 5 5 5 5 4 6 6
2 5 8 6 4 5 5 3 5 6 4 3 4 3 2 3 3 5 3 2 2 2 2 4 5 4 2 4 4 4 6 6 6 7 6 5 5 4 4 4 3 6 5 6 5 5 7 6 6 8 6 7 9 7
4 6 5 5 4 3 2 3 3 2 3 4 3 2 3 4 5 4 2 2 1 2 2 3 5 6 6 3 4 5 4 8 9 9 6 6 6 6 5 5 6 6 5 6 7 6 7 7 6 6 7 5 6 7
4 4 5 4 4 3 3 2 3 4 3 3 4 3 2 3 4 4 4 4 4 3 4 5 4 5 4 5 4 2 2 3 3 3 2 4 3 4 5 5 6 9 5 7 7 6 7 7 6 5 4 5 4 4
4 4 3 7 4 4 5 5 4 3 3 3 1 5 4 3 3 3 3 3 2 2 2 3 3 3 4 1 3 4 4 5 7 6 7 5 4 7 5 6 6 5 5 5 7 8 10 8 8 7 6 4 4 4
5 5 3 3 4 6 5 6 3 2 5 7 5 5 4 4 4 3 3 2 2 5 4 3 2 3 3 5 5 6 2 5 5 5 5 6 8 5 5 5 5 5 4 5 5 4 4 4 3 3 3 3 3 4
3 2 2 3 4 3 4 5 5 4 3 6 7 6 7 5 5 3 5 5 5 2 1 3 3 1 2 4 3 2 1 2 8 11 8 3 2 4 3 3 2 3 4 6 6 6 5 4 6 6 7 8 9 8
4 4 3 2 4 4 3 4 4 5 4 3 5 3 2 1 4 5 4 4 3 3 5 5 5 6 7 4 4 4 7 5 8 7 6 4 4 4 4 4 3 4 3 1 3 6 9 11 6 7 8 9 8 9
3 2 2 3 3 4 4 3 4 4 4 4 5 5 5 5 7 6 4 5 8 7 7 6 4 3 6 7 7 5 6 4 8 11 14 12 10 7 5 3 2 2 1 4 6 5 8 11 9 9 5 6 8 6
Wind_Direction
217 244 281 304 337 355 347 339 343 348 349 338 334 338 336 340 348 356 272 251 120 179 268 231 321 326 340 7 66 293 36 354 35 52 94 276 107 227 113 192 165 160 152 194 110 170 260 297 52 164 184 166 135 119
215 237 272 292 292 328 331 321 323 342 347 336 342 340 336 340 347 350 293 315 346 152 247 225 257 260 227 262 176 353 154 160 186 88 38 84 38 51 147 277 359 69 173 179 156 208 228 307 136 122 157 141 164 139
217 237 258 294 318 316 325 323 327 341 333 324 335 331 331 336 347 10 288 298 352 38 317 354 330 292 351 339 201 123 340 160 52 165 156 157 78 117 101 256 63 330 138 106 99 312 152 134 89 152 159 139 132 128
210 222 240 256 276 288 303 309 315 321 318 324 319 319 323 330 333 358 321 296 117 275 114 281 314 322 281 12 21 105 132 53 98 68 99 116 132 138 187 179 133 209 64 112 51 267 314 256 171 151 116 124 138 169
201 209 211 238 259 272 290 300 308 311 308 315 317 316 320 324 323 279 212 273 296 127 236 280 309 281 27 37 14 50 79 82 71 35 62 233 211 87 333 71 340 189 178 143 216 204 173 215 169 167 157 167 170 169
186 202 201 215 274 290 298 306 305 306 304 309 312 309 316 322 324 40 35 284 352 57 69 330 286 332 90 92 1 60 99 95 94 131 220 272 245 103 104 168 271 279 204 160 199 193 171 185 168 151 161 163 168 187
187 183 193 212 260 303 313 309 306 303 299 300 307 311 310 314 315 141 189 238 21 356 80 323 330 287 178 59 4 49 25 107 113 132 296 174 291 84 105 178 215 259 288 213 138 128 123 164 196 174 158 176 164 186
177 177 189 198 256 321 313 313 306 300 295 296 300 303 302 301 285 309 275 245 167 81 87 244 266 14 113 341 353 132 44 28 336 190 356 131 349 64 194 230 221 235 265 78 195 211 205 175 136 169 140 151 164 200
174 176 181 203 272 332 330 318 311 307 299 296 301 308 321 252 241 235 179 149 122 132 192 262 159 228 41 225 216 25 107 84 297 169 240 104 230 208 231 182 222 213 150 130 107 145 143 146 164 164 167 175 198 215
168 177 174 209 245 318 324 323 325 310 297 297 320 65 309 237 236 137 24 40 8 268 228 238 249 274 108 105 293 84 39 190 12 250 72 123 233 253 216 191 235 247 212 203 134 139 128 159 177 169 194 200 207 218
163 175 188 212 231 304 323 320 326 328 295 262 237 228 264 315 45 33 282 146 229 237 211 232 187 212 308 133 171 116 178 242 63 264 125 255 255 243 267 257 290 236 226 234 155 138 138 139 146 177 210 215 212 220
166 174 199 209 208 303 316 322 343 309 21 318 301 277 311 18 21 209 236 282 169 219 255 171 219 182 259 102 91 334 146 55 244 239 101 265 247 217 233 247 281 214 109 139 147 134 141 151 167 182 204 212 216 205
170 174 203 199 198 271 307 313 339 292 311 221 255 262 86 275 53 201 203 243 230 224 245 143 164 151 12 68 74 88 123 234 5 332 225 223 220 206 228 250 240 145 156 166 134 141 148 159 156 156 187 213 208 202
165 188 193 187 196 246 287 304 323 330 299 234 169 301 178 220 231 200 204 193 232 207 212 138 121 134 176 82 152 147 229 98 275 264 229 233 212 209 201 205 84 190 110 131 135 148 156 161 179 190 201 186 158 229
168 172 173 213 206 217 248 279 244 294 283 258 235 226 223 236 262 246 215 293 274 117 102 78 40 110 38 114 167 86 275 240 220 224 220 206 192 172 165 125 125 83 135 139 141 124 125 133 157 193 212 218 232 225
152 120 219 219 189 192 198 198 155 272 271 244 244 285 268 295 291 282 284 271 288 71 22 70 57 122 197 181 143 217 197 210 245 210 202 161 178 167 162 134 142 99 134 146 142 153 173 174 186 216 211 222 224 213
136 222 188 169 159 169 194 246 163 209 246 243 250 244 248 258 244 259 197 226 245 86 217 116 147 217 5 187 221 196 202 225 202 174 157 167 173 185 160 162 149 140 136 148 162 171 190 207 216 253 254 257 243 249
4 88 136 133 136 132 168 233 229 228 247 246 235 259 240 237 279 273 251 156 91 127 109 169 146 104 235 233 281 310 288 280 76 65 196 153 148 164 168 178 172 172 168 180 176 189 227 220 245 253 253 255 263 262
36 24 156 170 137 170 174 187 212 247 235 255 261 239 223 228 230 248 192 148 126 120 101 56 215 194 224 226 133 86 315 316 106 69 316 290 156 189 212 193 174 184 203 212 204 221 233 237 235 243 241 241 245 262
303 303 159 123 49 285 230 191 174 238 253 234 231 243 208 226 229 259 155 163 133 114 117 212 215 217 197 210 153 177 150 131 114 156 244 266 225 194 222 204 215 222 247 265 254 238 266 287 269 260 247 239 223 265
176 115 130 64 331 246 274 258 209 226 239 227 249 179 234 210 209 215 225 174 149 180 207 214 218 236 234 187 170 174 160 146 168 184 208 226 241 206 224 229 228 224 220 240 243 263 254 229 242 262 269 266 244 214
111 179 118 135 251 241 251 229 226 268 230 246 303 183 226 229 231 218 175 144 204 220 202 211 217 205 201 200 184 169 176 182 186 193 190 161 233 232 227 227 206 244 237 241 221 238 254 235 221 218 225 237 210 199
157 180 124 151 237 246 260 271 234 232 222 249 338 217 243 231 222 121 193 207 221 212 202 209 218 205 208 210 149 174 170 166 169 186 242 195 232 260 253 245 209 227 249 260 228 223 212 203 208 210 232 210 226 260
203 174 174 202 195 257 287 237 218 258 263 259 221 253 240 232 156 127 231 228 228 211 192 215 206 197 195 139 185 203 201 170 192 189 195 219 240 235 230 233 234 231 225 241 246 198 179 203 219 220 236 206 187 193
117 209 155 237 237 242 248 237 210 235 242 230 234 281 276 45 315 246 233 261 220 222 222 207 185 185 174 197 219 216 164 165 194 225 219 203 215 191 203 229 236 235 226 199 211 201 191 196 210 215 221 181 202 226
213 206 186 202 228 193 224 224 209 207 206 229 239 246 255 184 227 244 243 251 221 297 171 168 158 144 206 195 163 174 186 155 203 220 241 173 179 192 214 217 280 291 195 195 152 186 184 197 203 199 214 222 217 206
243 228 203 224 242 221 245 257 263 265 233 216 229 231 185 241 225 251 273 299 46 302 224 185 168 173 188 235 210 207 195 190 204 223 211 204 196 189 175 190 234 231 184 184 176 179 180 188 201 203 225 246 227 214
258 268 237 212 222 211 203 286 257 224 226 273 309 214 234 232 219 246 208 215 204 241 281 279 211 192 165 212 235 207 175 170 138 111 358 322 242 189 197 211 227 239 211 176 174 167 174 185 194 198 180 195 220 206
243 255 271 263 212 192 204 210 246 211 157 83 338 273 265 251 208 203 252 267 229 31 323 266 297 111 120 97 180 225 183 133 126 146 195 245 309 289 260 201 217 193 200 181 187 184 179 171 177 177 176 179 214 223
244 193 242 290 198 205 226 188 234 173 168 196 216 274 303 295 274 176 183 233 265 251 234 226 212 136 146 150 190 254 216 161 154 156 181 212 221 232 209 191 189 201 195 190 208 168 90 132 127 158 190 226 248 243
244 176 225 166 255 273 280 291 280 280 252 257 262 236 252 269 301 259 207 201 217 209 287 314 341 88 126 205 190 169 96 194 202 224 197 160 220 215 156 164 141 169 178 206 207 191 178 201 199 199 217 231 246 247
145 178 185 245 260 261 312 242 216 220 243 241 252 237 293 297 270 279 242 170 185 194 218 152 147 250 257 211 190 241 217 169 196 219 196 150 200 181 149 124 106 72 44 349 242 199 208 214 210 217 223 236 247 252
106 104 175 249 264 276 245 228 236 242 217 218 230 219 213 197 225 257 297 186 186 195 197 214 221 245 231 190 198 204 193 183 160 149 143 148 155 130 111 103 115 130 61 335 303 258 231 193 205 221 230 256 252 231